| time (UTC) | temp F | wind direction | speed MPH | gust MPH | rain 1hr in | rain 24hr in | rain mn in | humidity % | barometer mb |
| 20260510191804 | 69 | 103 | 4.0 | 5.0 | 0.00 | 0.00 | 0.00 | 99 | 1023.3 |
| 20260510191300 | 68 | 209 | 1.0 | 5.0 | 0.00 | 0.00 | 0.00 | 99 | 1023.6 |
| 20260510190758 | 69 | 105 | 3.0 | 3.0 | 0.00 | 0.00 | 0.00 | 99 | 1023.5 |
| 20260510190255 | 67 | 126 | 1.0 | 4.0 | 0.00 | 0.00 | 0.00 | 99 | 1023.3 |
| 20260510185751 | 67 | 94 | 0.0 | 6.0 | 0.00 | 0.00 | 0.00 | 99 | 1023.4 |
| 20260510185249 | 67 | 121 | 2.0 | 4.0 | 0.00 | 0.00 | 0.00 | 99 | 1023.5 |
| 20260510184746 | 68 | 110 | 2.0 | 4.0 | 0.00 | 0.00 | 0.00 | 99 | 1023.5 |
| 20260510184243 | 67 | 130 | 3.0 | 4.0 | 0.00 | 0.00 | 0.00 | 99 | 1023.7 |
| 20260510183737 | 67 | 154 | 0.0 | 5.0 | 0.00 | 0.00 | 0.00 | 99 | 1023.4 |
| 20260510183232 | 67 | 90 | 0.0 | 7.0 | 0.00 | 0.00 | 0.00 | 99 | 1023.5 |
| 20260510182729 | 66 | 109 | 1.0 | 3.0 | 0.00 | 0.00 | 0.00 | 99 | 1023.5 |
| 20260510182225 | 66 | 144 | 2.0 | 3.0 | 0.00 | 0.00 | 0.00 | 99 | 1023.3 |
| 20260510181722 | 64 | 99 | 0.0 | 2.0 | 0.00 | 0.00 | 0.00 | 99 | 1023.0 |
| 20260510181219 | 64 | 109 | 0.0 | 3.0 | 0.00 | 0.00 | 0.00 | 99 | 1023.0 |
| 20260510180715 | 64 | 106 | 0.0 | 1.0 | 0.00 | 0.00 | 0.00 | 99 | 1023.0 |
| 20260510180212 | 63 | 70 | 0.0 | 2.0 | 0.00 | 0.00 | 0.00 | 99 | 1022.8 |
| 20260510175708 | 63 | 195 | 1.0 | 2.0 | 0.00 | 0.00 | 0.00 | 99 | 1022.6 |
| 20260510175204 | 63 | 110 | 2.0 | 3.0 | 0.00 | 0.00 | 0.00 | 99 | 1022.7 |
| 20260510174702 | 63 | 90 | 0.0 | 7.0 | 0.00 | 0.00 | 0.00 | 99 | 1022.6 |
| 20260510174159 | 63 | 33 | 3.0 | 3.0 | 0.00 | 0.00 | 0.00 | 99 | 1022.7 |
| 20260510173655 | 62 | 20 | 1.0 | 3.0 | 0.00 | 0.00 | 0.00 | 99 | 1022.7 |
| 20260510173151 | 62 | 133 | 3.0 | 3.0 | 0.00 | 0.00 | 0.00 | 99 | 1022.6 |
| 20260510172646 | 62 | 154 | 2.0 | 5.0 | 0.00 | 0.00 | 0.00 | 99 | 1023.1 |
| 20260510172143 | 62 | 234 | 0.0 | 7.0 | 0.00 | 0.00 | 0.00 | 99 | 1023.4 |
| 20260510171640 | 62 | 84 | 3.0 | 13.0 | 0.00 | 0.00 | 0.00 | 99 | 1023.8 |
| 20260510171137 | 62 | 357 | 4.0 | 9.0 | 0.00 | 0.00 | 0.00 | 99 | 1024.4 |
| 20260510170633 | 62 | 90 | 2.0 | 14.0 | 0.00 | 0.00 | 0.00 | 99 | 1024.3 |
| 20260510170130 | 62 | 353 | 4.0 | 15.0 | 0.00 | 0.00 | 0.00 | 99 | 1024.5 |
| 20260510165626 | 62 | 35 | 10.0 | 17.0 | 0.00 | 0.00 | 0.00 | 99 | 1024.4 |
| 20260510165121 | 62 | 34 | 13.0 | 27.0 | 0.00 | 0.00 | 0.00 | 99 | 1024.3 |
| 20260510164620 | 63 | 26 | 2.0 | 18.0 | 0.00 | 0.00 | 0.00 | 99 | 1023.7 |
| 20260510164116 | 65 | 45 | 9.0 | 29.0 | 0.00 | 0.00 | 0.00 | 99 | 1023.9 |
| 20260510163611 | 67 | 18 | 3.0 | 28.0 | 0.00 | 0.00 | 0.00 | 99 | 1023.3 |
| 20260510163108 | 68 | 18 | 14.0 | 23.0 | 0.00 | 0.00 | 0.00 | 99 | 1023.2 |
| 20260510162602 | 69 | 32 | 18.0 | 34.0 | 0.00 | 0.00 | 0.00 | 99 | 1023.6 |
| 20260510162059 | 77 | 327 | 3.0 | 9.0 | 0.00 | 0.00 | 0.00 | 99 | 1023.4 |
| 20260510161555 | 77 | 127 | 0.0 | 4.0 | 0.00 | 0.00 | 0.00 | 99 | 1021.9 |
| 20260510161052 | 77 | 111 | 0.0 | 4.0 | 0.00 | 0.00 | 0.00 | 99 | 1021.2 |
| 20260510160549 | 78 | 90 | 0.0 | 5.0 | 0.00 | 0.00 | 0.00 | 99 | 1021.1 |
| 20260510160048 | 78 | 192 | 1.0 | 5.0 | 0.00 | 0.00 | 0.00 | 99 | 1020.8 |
| 20260510155545 | 77 | 233 | 2.0 | 6.0 | 0.00 | 0.00 | 0.00 | 99 | 1020.6 |
| 20260510155042 | 78 | 154 | 1.0 | 7.0 | 0.00 | 0.00 | 0.00 | 99 | 1020.1 |
| 20260510154537 | 78 | 115 | 5.0 | 5.0 | 0.00 | 0.00 | 0.00 | 99 | 1019.9 |
| 20260510154033 | 77 | 101 | 3.0 | 3.0 | 0.00 | 0.00 | 0.00 | 99 | 1019.9 |
| 20260510153528 | 77 | 141 | 3.0 | 4.0 | 0.00 | 0.00 | 0.00 | 99 | 1020.1 |
| 20260510153025 | 76 | 236 | 3.0 | 3.0 | 0.00 | 0.00 | 0.00 | 99 | 1019.9 |
| 20260510152522 | 76 | 219 | 4.0 | 4.0 | 0.00 | 0.00 | 0.00 | 99 | 1019.8 |
| 20260510152018 | 75 | 222 | 0.0 | 9.0 | 0.00 | 0.00 | 0.00 | 99 | 1019.9 |
| 20260510151515 | 75 | 160 | 0.0 | 5.0 | 0.00 | 0.00 | 0.00 | 99 | 1019.8 |
| 20260510151013 | 74 | 259 | 0.0 | 6.0 | 0.00 | 0.00 | 0.00 | 99 | 1019.8 |
| 20260510150507 | 74 | 74 | 0.0 | 4.0 | 0.00 | 0.00 | 0.00 | 99 | 1020.0 |
| 20260510150004 | 73 | 139 | 2.0 | 5.0 | 0.00 | 0.00 | 0.00 | 99 | 1020.1 |
| 20260510145501 | 72 | 111 | 0.0 | 6.0 | 0.00 | 0.00 | 0.00 | 99 | 1019.9 |
| 20260510144957 | 71 | 131 | 2.0 | 5.0 | 0.00 | 0.00 | 0.00 | 99 | 1019.8 |
| 20260510144454 | 71 | 203 | 3.0 | 5.0 | 0.00 | 0.00 | 0.00 | 99 | 1020.0 |
| 20260510143949 | 70 | 225 | 0.0 | 8.0 | 0.00 | 0.00 | 0.00 | 99 | 1019.8 |
| 20260510143445 | 69 | 234 | 1.0 | 9.0 | 0.00 | 0.00 | 0.00 | 99 | 1019.7 |
| 20260510142942 | 68 | 210 | 0.0 | 6.0 | 0.00 | 0.00 | 0.00 | 99 | 1019.7 |
| 20260510142439 | 68 | 74 | 3.0 | 4.0 | 0.00 | 0.00 | 0.00 | 99 | 1020.0 |
| 20260510141935 | 67 | 90 | 0.0 | 7.0 | 0.00 | 0.00 | 0.00 | 99 | 1020.0 |
| 20260510141432 | 67 | 270 | 2.0 | 3.0 | 0.00 | 0.00 | 0.00 | 99 | 1020.4 |
| 20260510140929 | 66 | 270 | 0.0 | 5.0 | 0.00 | 0.00 | 0.00 | 99 | 1020.4 |
| 20260510140420 | 66 | 208 | 0.0 | 9.0 | 0.00 | 0.00 | 0.00 | 99 | 1020.3 |
| 20260510135919 | 66 | 212 | 2.0 | 5.0 | 0.00 | 0.00 | 0.00 | 99 | 1020.8 |
| 20260510135415 | 66 | 219 | 0.0 | 3.0 | 0.00 | 0.00 | 0.00 | 99 | 1020.8 |
| 20260510134913 | 65 | 180 | 0.0 | 5.0 | 0.00 | 0.00 | 0.00 | 99 | 1021.1 |
| 20260510134409 | 65 | 90 | 1.0 | 1.0 | 0.00 | 0.00 | 0.00 | 99 | 1021.3 |
| 20260510133905 | 64 | 220 | 0.0 | 3.0 | 0.00 | 0.00 | 0.00 | 99 | 1021.7 |
| 20260510133402 | 65 | 248 | 0.0 | 4.0 | 0.00 | 0.00 | 0.00 | 99 | 1021.6 |
| 20260510132857 | 65 | 220 | 0.0 | 0.0 | 0.00 | 0.00 | 0.00 | 99 | 1021.3 |
| 20260510132356 | 65 | 264 | 0.0 | 1.0 | 0.00 | 0.00 | 0.00 | 99 | 1021.3 |
| 20260510131852 | 65 | 222 | 3.0 | 3.0 | 0.00 | 0.00 | 0.00 | 99 | 1021.3 |
| 20260510131350 | 65 | 240 | 0.0 | 4.0 | 0.00 | 0.00 | 0.00 | 99 | 1021.3 |
| 20260510130846 | 65 | 245 | 2.0 | 3.0 | 0.00 | 0.00 | 0.00 | 99 | 1021.1 |
| 20260510130343 | 65 | 270 | 0.0 | 0.0 | 0.00 | 0.00 | 0.00 | 99 | 1021.2 |
| 20260510125840 | 65 | 270 | 0.0 | 0.0 | 0.00 | 0.00 | 0.00 | 99 | 1021.1 |
| 20260510125336 | 64 | 270 | 0.0 | 1.0 | 0.00 | 0.00 | 0.00 | 99 | 1021.2 |
| 20260510124834 | 64 | 194 | 0.0 | 0.0 | 0.00 | 0.00 | 0.00 | 99 | 1021.1 |
| 20260510124330 | 64 | 194 | 0.0 | 0.0 | 0.00 | 0.00 | 0.00 | 99 | 1021.0 |
| 20260510123826 | 64 | 194 | 0.0 | 0.0 | 0.00 | 0.00 | 0.00 | 99 | 1021.1 |
| 20260510123321 | 64 | 194 | 0.0 | 2.0 | 0.00 | 0.00 | 0.00 | 99 | 1020.9 |
| 20260510122818 | 63 | 270 | 0.0 | 2.0 | 0.00 | 0.00 | 0.00 | 99 | 1021.0 |
| 20260510122314 | 63 | 279 | 0.0 | 0.0 | 0.00 | 0.00 | 0.00 | 99 | 1021.0 |
| 20260510121810 | 63 | 279 | 0.0 | 0.0 | 0.00 | 0.00 | 0.00 | 99 | 1020.6 |
| 20260510121308 | 63 | 279 | 0.0 | 0.0 | 0.00 | 0.00 | 0.00 | 99 | 1020.6 |
| 20260510120805 | 63 | 278 | 0.0 | 1.0 | 0.00 | 0.00 | 0.00 | 99 | 1020.5 |
| 20260510120301 | 63 | 232 | 2.0 | 2.0 | 0.00 | 0.00 | 0.00 | 99 | 1020.6 |
| 20260510115757 | 63 | 254 | 0.0 | 2.0 | 0.00 | 0.00 | 0.00 | 99 | 1020.6 |
| 20260510115256 | 63 | 253 | 2.0 | 2.0 | 0.00 | 0.00 | 0.00 | 99 | 1020.5 |
| 20260510114756 | 63 | 278 | 0.0 | 1.0 | 0.00 | 0.00 | 0.00 | 99 | 1020.5 |
| 20260510114254 | 63 | 262 | 0.0 | 1.0 | 0.00 | 0.00 | 0.00 | 99 | 1020.5 |
| 20260510113754 | 63 | 270 | 0.0 | 0.0 | 0.00 | 0.00 | 0.00 | 99 | 1020.6 |
| 20260510113251 | 63 | 261 | 0.0 | 0.0 | 0.00 | 0.00 | 0.00 | 99 | 1020.3 |
| 20260510112747 | 63 | 264 | 0.0 | 2.0 | 0.00 | 0.00 | 0.00 | 99 | 1020.4 |
| 20260510112244 | 63 | 262 | 0.0 | 0.0 | 0.00 | 0.00 | 0.00 | 99 | 1020.5 |
| 20260510111740 | 63 | 261 | 0.0 | 1.0 | 0.00 | 0.00 | 0.00 | 99 | 1020.3 |
| 20260510111237 | 63 | 246 | 0.0 | 1.0 | 0.00 | 0.00 | 0.00 | 99 | 1020.3 |
| 20260510110737 | 63 | 278 | 0.0 | 1.0 | 0.00 | 0.00 | 0.00 | 99 | 1020.1 |
| 20260510110235 | 63 | 254 | 0.0 | 0.0 | 0.00 | 0.00 | 0.00 | 99 | 1019.9 |
| 20260510105734 | 63 | 254 | 0.0 | 0.0 | 0.00 | 0.00 | 0.00 | 99 | 1020.1 |
| 20260510105230 | 63 | 8 | 0.0 | 0.0 | 0.00 | 0.00 | 0.00 | 99 | 1020.0 |
| 20260510104726 | 63 | 8 | 0.0 | 0.0 | 0.00 | 0.00 | 0.00 | 99 | 1020.1 |
| 20260510104224 | 63 | 8 | 0.0 | 2.0 | 0.00 | 0.00 | 0.00 | 99 | 1019.7 |
| 20260510103720 | 63 | 270 | 0.0 | 2.0 | 0.00 | 0.00 | 0.00 | 99 | 1020.0 |
| 20260510103218 | 63 | 165 | 0.0 | 2.0 | 0.00 | 0.00 | 0.00 | 99 | 1019.6 |
| 20260510102717 | 63 | 250 | 0.0 | 3.0 | 0.00 | 0.00 | 0.00 | 99 | 1019.5 |
| 20260510102213 | 63 | 194 | 0.0 | 3.0 | 0.00 | 0.00 | 0.00 | 99 | 1019.4 |
| 20260510101711 | 63 | 115 | 0.0 | 2.0 | 0.00 | 0.00 | 0.00 | 99 | 1019.2 |
| 20260510101209 | 63 | 90 | 0.0 | 5.0 | 0.00 | 0.00 | 0.00 | 99 | 1019.6 |
| 20260510100704 | 63 | 115 | 2.0 | 3.0 | 0.00 | 0.00 | 0.00 | 99 | 1019.7 |
| 20260510100203 | 63 | 294 | 1.0 | 5.0 | 0.00 | 0.00 | 0.00 | 99 | 1019.7 |
| 20260510095658 | 63 | 154 | 2.0 | 2.0 | 0.00 | 0.00 | 0.00 | 99 | 1020.0 |
| 20260510095153 | 63 | 0 | 2.0 | 3.0 | 0.00 | 0.00 | 0.00 | 99 | 1019.6 |
| 20260510094651 | 63 | 209 | 0.0 | 3.0 | 0.00 | 0.00 | 0.00 | 99 | 1019.9 |
| 20260510094148 | 63 | 120 | 2.0 | 5.0 | 0.00 | 0.00 | 0.00 | 99 | 1019.6 |
| 20260510093644 | 63 | 171 | 3.0 | 7.0 | 0.00 | 0.00 | 0.00 | 99 | 1019.1 |
| 20260510093141 | 64 | 103 | 0.0 | 3.0 | 0.00 | 0.00 | 0.00 | 99 | 1019.7 |
| 20260510092638 | 65 | 129 | 2.0 | 10.0 | 0.00 | 0.00 | 0.00 | 99 | 1020.0 |
| 20260510092133 | 66 | 26 | 11.0 | 14.0 | 0.00 | 0.00 | 0.00 | 99 | 1020.7 |
| 20260510091629 | 68 | 49 | 6.0 | 19.0 | 0.00 | 0.00 | 0.00 | 99 | 1020.5 |
| 20260510091125 | 69 | 35 | 10.0 | 23.0 | 0.00 | 0.00 | 0.00 | 99 | 1019.6 |
| 20260510090617 | 69 | 62 | 10.0 | 22.0 | 0.00 | 0.00 | 0.00 | 99 | 1019.8 |
| 20260510090113 | 70 | 99 | 3.0 | 16.0 | 0.00 | 0.00 | 0.00 | 99 | 1019.5 |
| 20260510085608 | 70 | 10 | 3.0 | 17.0 | 0.00 | 0.00 | 0.00 | 99 | 1019.4 |
| 20260510085104 | 73 | 37 | 9.0 | 11.0 | 0.00 | 0.00 | 0.00 | 99 | 1019.4 |
| 20260510084600 | 72 | 27 | 6.0 | 6.0 | 0.00 | 0.00 | 0.00 | 99 | 1019.1 |
| 20260510084057 | 73 | 14 | 2.0 | 9.0 | 0.00 | 0.00 | 0.00 | 99 | 1019.1 |
| 20260510083553 | 73 | 52 | 4.0 | 5.0 | 0.00 | 0.00 | 0.00 | 99 | 1018.9 |
| 20260510083050 | 73 | 63 | 0.0 | 7.0 | 0.00 | 0.00 | 0.00 | 99 | 1018.3 |
| 20260510082547 | 73 | 15 | 0.0 | 3.0 | 0.00 | 0.00 | 0.00 | 99 | 1018.2 |
| 20260510082042 | 73 | 114 | 0.0 | 5.0 | 0.00 | 0.00 | 0.00 | 99 | 1018.1 |
| 20260510081537 | 73 | 19 | 2.0 | 4.0 | 0.00 | 0.00 | 0.00 | 99 | 1018.4 |
| 20260510081033 | 73 | 19 | 3.0 | 6.0 | 0.00 | 0.00 | 0.00 | 99 | 1018.7 |
| 20260510080532 | 73 | 42 | 3.0 | 5.0 | 0.00 | 0.00 | 0.00 | 99 | 1018.5 |
| 20260510080030 | 73 | 73 | 2.0 | 7.0 | 0.00 | 0.00 | 0.00 | 99 | 1018.2 |
| 20260510075527 | 73 | 24 | 2.0 | 4.0 | 0.00 | 0.00 | 0.00 | 99 | 1017.8 |
| 20260510075023 | 73 | 90 | 0.0 | 0.0 | 0.00 | 0.00 | 0.00 | 99 | 1017.7 |
| 20260510074521 | 73 | 78 | 0.0 | 2.0 | 0.00 | 0.00 | 0.00 | 99 | 1017.6 |
| 20260510074016 | 74 | 77 | 0.0 | 2.0 | 0.00 | 0.00 | 0.00 | 99 | 1017.2 |
| 20260510073513 | 74 | 90 | 0.0 | 2.0 | 0.00 | 0.00 | 0.00 | 99 | 1017.0 |
| 20260510073010 | 74 | 109 | 1.0 | 2.0 | 0.00 | 0.00 | 0.00 | 99 | 1016.9 |
| 20260510072506 | 74 | 66 | 0.0 | 2.0 | 0.00 | 0.00 | 0.00 | 99 | 1017.0 |
| 20260510072001 | 74 | 109 | 0.0 | 3.0 | 0.00 | 0.00 | 0.00 | 99 | 1016.6 |
| 20260510071458 | 74 | 97 | 0.0 | 2.0 | 0.00 | 0.00 | 0.00 | 99 | 1016.7 |
| 20260510070956 | 74 | 90 | 0.0 | 2.0 | 0.00 | 0.00 | 0.00 | 99 | 1016.6 |
| 20260510070453 | 75 | 106 | 1.0 | 3.0 | 0.00 | 0.00 | 0.00 | 99 | 1016.4 |
| 20260510065949 | 75 | 114 | 3.0 | 3.0 | 0.00 | 0.00 | 0.00 | 99 | 1016.3 |
| 20260510065446 | 75 | 109 | 0.0 | 3.0 | 0.00 | 0.00 | 0.00 | 99 | 1016.8 |
| 20260510064942 | 75 | 106 | 2.0 | 5.0 | 0.00 | 0.00 | 0.00 | 99 | 1017.9 |
| 20260510064440 | 75 | 59 | 2.0 | 5.0 | 0.00 | 0.00 | 0.00 | 99 | 1018.3 |
| 20260510063936 | 75 | 71 | 4.0 | 10.0 | 0.00 | 0.00 | 0.00 | 99 | 1018.2 |
| 20260510063432 | 75 | 105 | 3.0 | 9.0 | 0.00 | 0.00 | 0.00 | 99 | 1018.5 |
| 20260510062931 | 75 | 53 | 2.0 | 13.0 | 0.00 | 0.00 | 0.00 | 99 | 1018.6 |
| 20260510062430 | 75 | 28 | 4.0 | 8.0 | 0.00 | 0.00 | 0.00 | 99 | 1018.7 |
| 20260510061926 | 75 | 14 | 5.0 | 7.0 | 0.00 | 0.00 | 0.00 | 99 | 1018.5 |
| 20260510061423 | 75 | 121 | 2.0 | 8.0 | 0.00 | 0.00 | 0.00 | 99 | 1018.7 |
| 20260510060919 | 75 | 42 | 3.0 | 11.0 | 0.00 | 0.00 | 0.00 | 99 | 1018.6 |
| 20260510060416 | 75 | 17 | 5.0 | 6.0 | 0.00 | 0.00 | 0.00 | 99 | 1018.3 |
| 20260510055913 | 75 | 25 | 4.0 | 6.0 | 0.00 | 0.00 | 0.00 | 99 | 1017.6 |
| 20260510055408 | 75 | 75 | 0.0 | 2.0 | 0.00 | 0.00 | 0.00 | 99 | 1016.9 |
| 20260510054906 | 75 | 74 | 0.0 | 1.0 | 0.00 | 0.00 | 0.00 | 99 | 1016.6 |
| 20260510054402 | 75 | 98 | 0.0 | 2.0 | 0.00 | 0.00 | 0.00 | 99 | 1016.1 |
| 20260510053857 | 75 | 106 | 1.0 | 1.0 | 0.00 | 0.00 | 0.00 | 99 | 1016.2 |
| 20260510053353 | 75 | 106 | 0.0 | 1.0 | 0.00 | 0.00 | 0.00 | 99 | 1016.1 |
| 20260510052849 | 75 | 90 | 0.0 | 2.0 | 0.00 | 0.00 | 0.00 | 99 | 1016.0 |
| 20260510052345 | 75 | 84 | 0.0 | 2.0 | 0.00 | 0.00 | 0.00 | 99 | 1016.0 |
| 20260510051841 | 75 | 135 | 0.0 | 3.0 | 0.00 | 0.00 | 0.00 | 99 | 1015.7 |
| 20260510051338 | 75 | 98 | 0.0 | 3.0 | 0.00 | 0.00 | 0.00 | 99 | 1015.8 |
| 20260510050835 | 75 | 120 | 0.0 | 2.0 | 0.00 | 0.00 | 0.00 | 99 | 1015.7 |
| 20260510050332 | 74 | 98 | 0.0 | 1.0 | 0.00 | 0.00 | 0.00 | 99 | 1015.7 |
| 20260510045829 | 74 | 114 | 0.0 | 2.0 | 0.00 | 0.00 | 0.00 | 99 | 1015.8 |
| 20260510045326 | 74 | 106 | 0.0 | 2.0 | 0.00 | 0.00 | 0.00 | 99 | 1015.9 |
| 20260510044823 | 74 | 75 | 0.0 | 4.0 | 0.00 | 0.00 | 0.00 | 99 | 1015.6 |
| 20260510044320 | 74 | 114 | 3.0 | 3.0 | 0.00 | 0.00 | 0.00 | 99 | 1015.4 |
| 20260510043816 | 74 | 135 | 2.0 | 2.0 | 0.00 | 0.00 | 0.00 | 99 | 1015.2 |
| 20260510043312 | 74 | 246 | 0.0 | 2.0 | 0.00 | 0.00 | 0.00 | 99 | 1015.5 |
| 20260510042810 | 74 | 131 | 0.0 | 2.0 | 0.00 | 0.00 | 0.00 | 99 | 1015.0 |
| 20260510042307 | 73 | 114 | 0.0 | 0.0 | 0.00 | 0.00 | 0.00 | 99 | 1015.2 |
| 20260510041802 | 73 | 165 | 1.0 | 2.0 | 0.00 | 0.00 | 0.00 | 99 | 1015.5 |
| 20260510041259 | 73 | 106 | 1.0 | 2.0 | 0.00 | 0.00 | 0.00 | 99 | 1015.4 |
| 20260510040757 | 74 | 165 | 0.0 | 0.0 | 0.00 | 0.00 | 0.00 | 99 | 1015.5 |
| 20260510040248 | 74 | 90 | 0.0 | 0.0 | 0.00 | 0.00 | 0.00 | 99 | 1015.6 |
| 20260510035743 | 74 | 90 | 0.0 | 0.0 | 0.00 | 0.00 | 0.00 | 99 | 1015.7 |
| 20260510035239 | 74 | 90 | 0.0 | 0.0 | 0.00 | 0.00 | 0.00 | 99 | 1015.7 |
| 20260510034735 | 74 | 90 | 0.0 | 0.0 | 0.00 | 0.00 | 0.00 | 99 | 1015.7 |
| 20260510034233 | 75 | 105 | 0.0 | 0.0 | 0.00 | 0.00 | 0.00 | 99 | 1015.6 |
| 20260510033729 | 75 | 103 | 0.0 | 0.0 | 0.00 | 0.00 | 0.00 | 99 | 1015.6 |
| 20260510033227 | 75 | 106 | 0.0 | 0.0 | 0.00 | 0.00 | 0.00 | 99 | 1015.7 |
| 20260510032723 | 75 | 106 | 0.0 | 1.0 | 0.00 | 0.00 | 0.00 | 99 | 1015.7 |
| 20260510032219 | 75 | 106 | 0.0 | 0.0 | 0.00 | 0.00 | 0.00 | 99 | 1015.5 |
| 20260510031714 | 75 | 99 | 0.0 | 1.0 | 0.00 | 0.00 | 0.00 | 99 | 1015.5 |
| 20260510031210 | 75 | 117 | 0.0 | 0.0 | 0.00 | 0.00 | 0.00 | 99 | 1015.6 |
| 20260510030704 | 76 | 111 | 0.0 | 0.0 | 0.00 | 0.00 | 0.00 | 99 | 1015.7 |
| 20260510030202 | 76 | 97 | 0.0 | 1.0 | 0.00 | 0.00 | 0.00 | 99 | 1015.5 |
| 20260510025659 | 77 | 106 | 0.0 | 1.0 | 0.00 | 0.00 | 0.00 | 99 | 1015.6 |
| 20260510025156 | 77 | 101 | 0.0 | 2.0 | 0.00 | 0.00 | 0.00 | 99 | 1015.6 |
| 20260510024653 | 77 | 98 | 0.0 | 1.0 | 0.00 | 0.00 | 0.00 | 99 | 1015.5 |
| 20260510024149 | 77 | 114 | 1.0 | 2.0 | 0.00 | 0.00 | 0.00 | 99 | 1015.7 |
| 20260510023645 | 77 | 81 | 0.0 | 1.0 | 0.00 | 0.00 | 0.00 | 99 | 1015.8 |
| 20260510023142 | 77 | 90 | 0.0 | 1.0 | 0.00 | 0.00 | 0.00 | 99 | 1015.7 |
| 20260510022637 | 77 | 97 | 0.0 | 1.0 | 0.00 | 0.00 | 0.00 | 99 | 1015.6 |
| 20260510022132 | 78 | 99 | 0.0 | 1.0 | 0.00 | 0.00 | 0.00 | 99 | 1015.5 |
| 20260510021628 | 78 | 98 | 0.0 | 1.0 | 0.00 | 0.00 | 0.00 | 99 | 1015.4 |
| 20260510021126 | 78 | 96 | 0.0 | 2.0 | 0.00 | 0.00 | 0.00 | 99 | 1015.4 |
| 20260510020620 | 78 | 90 | 0.0 | 1.0 | 0.00 | 0.00 | 0.00 | 99 | 1015.2 |
| 20260510020115 | 78 | 114 | 0.0 | 2.0 | 0.00 | 0.00 | 0.00 | 99 | 1015.4 |
| 20260510015612 | 78 | 126 | 0.0 | 1.0 | 0.00 | 0.00 | 0.00 | 99 | 1015.2 |
| 20260510015108 | 79 | 99 | 1.0 | 2.0 | 0.00 | 0.00 | 0.00 | 99 | 1015.3 |
| 20260510014604 | 79 | 120 | 0.0 | 2.0 | 0.00 | 0.00 | 0.00 | 99 | 1015.2 |
| 20260510014101 | 79 | 90 | 0.0 | 2.0 | 0.00 | 0.00 | 0.00 | 99 | 1015.0 |
| 20260510013555 | 80 | 114 | 1.0 | 2.0 | 0.00 | 0.00 | 0.00 | 99 | 1014.8 |
| 20260510013052 | 80 | 126 | 0.0 | 1.0 | 0.00 | 0.00 | 0.00 | 99 | 1015.0 |
| 20260510012545 | 80 | 97 | 0.0 | 1.0 | 0.00 | 0.00 | 0.00 | 99 | 1014.8 |
| 20260510012043 | 80 | 106 | 0.0 | 2.0 | 0.00 | 0.00 | 0.00 | 99 | 1014.7 |
| 20260510011542 | 80 | 106 | 0.0 | 1.0 | 0.00 | 0.00 | 0.00 | 99 | 1014.7 |
| 20260510011038 | 81 | 117 | 1.0 | 2.0 | 0.00 | 0.00 | 0.00 | 99 | 1014.5 |
| 20260510010535 | 81 | 103 | 1.0 | 2.0 | 0.00 | 0.00 | 0.00 | 99 | 1014.6 |
| 20260510010032 | 82 | 96 | 2.0 | 2.0 | 0.00 | 0.00 | 0.00 | 99 | 1014.5 |
| 20260510005527 | 83 | 90 | 0.0 | 2.0 | 0.00 | 0.00 | 0.00 | 99 | 1014.5 |
| 20260510005026 | 83 | 101 | 0.0 | 2.0 | 0.00 | 0.00 | 0.00 | 99 | 1014.2 |
| 20260510004523 | 84 | 99 | 0.0 | 2.0 | 0.00 | 0.00 | 0.00 | 99 | 1014.5 |
| 20260510004021 | 84 | 83 | 1.0 | 2.0 | 0.00 | 0.00 | 0.00 | 99 | 1014.5 |
| 20260510003517 | 84 | 90 | 0.0 | 2.0 | 0.00 | 0.00 | 0.00 | 99 | 1014.5 |
| 20260510003013 | 85 | 90 | 0.0 | 2.0 | 0.00 | 0.00 | 0.00 | 99 | 1014.3 |
| 20260510002508 | 85 | 96 | 0.0 | 2.0 | 0.00 | 0.00 | 0.00 | 99 | 1014.3 |
| 20260510002005 | 86 | 103 | 2.0 | 3.0 | 0.00 | 0.00 | 0.00 | 99 | 1014.5 |
| 20260510001503 | 86 | 90 | 0.0 | 2.0 | 0.00 | 0.00 | 0.00 | 99 | 1014.3 |
| 20260510001001 | 86 | 69 | 0.0 | 3.0 | 0.00 | 0.00 | 0.00 | 99 | 1014.4 |
| 20260510000456 | 86 | 102 | 2.0 | 2.0 | 0.00 | 0.00 | 0.00 | 99 | 1014.4 |
| 20260509235953 | 86 | 90 | 0.0 | 2.0 | 0.00 | 0.00 | 0.00 | 99 | 1014.6 |
| 20260509235449 | 86 | 74 | 0.0 | 4.0 | 0.00 | 0.00 | 0.00 | 99 | 1014.4 |
| 20260509234946 | 87 | 104 | 3.0 | 3.0 | 0.00 | 0.00 | 0.00 | 99 | 1014.5 |
| 20260509234443 | 86 | 45 | 2.0 | 3.0 | 0.00 | 0.00 | 0.00 | 99 | 1014.8 |
| 20260509233941 | 86 | 98 | 0.0 | 3.0 | 0.00 | 0.00 | 0.00 | 99 | 1014.6 |
| 20260509233438 | 87 | 135 | 0.0 | 3.0 | 0.00 | 0.00 | 0.00 | 99 | 1014.7 |
| 20260509232934 | 87 | 99 | 0.0 | 3.0 | 0.00 | 0.00 | 0.00 | 99 | 1014.8 |
| 20260509232432 | 87 | 114 | 0.0 | 3.0 | 0.00 | 0.00 | 0.00 | 99 | 1014.7 |
| 20260509231927 | 87 | 69 | 1.0 | 3.0 | 0.00 | 0.00 | 0.00 | 99 | 1014.6 |
| 20260509231424 | 87 | 90 | 0.0 | 3.0 | 0.00 | 0.00 | 0.00 | 99 | 1014.6 |
| 20260509230922 | 87 | 120 | 0.0 | 3.0 | 0.00 | 0.00 | 0.00 | 99 | 1014.7 |
| 20260509230419 | 88 | 57 | 0.0 | 5.0 | 0.00 | 0.00 | 0.00 | 99 | 1014.6 |
| 20260509225915 | 87 | 148 | 2.0 | 5.0 | 0.00 | 0.00 | 0.00 | 99 | 1014.5 |
| 20260509225412 | 87 | 85 | 0.0 | 3.0 | 0.00 | 0.00 | 0.00 | 99 | 1014.6 |
| 20260509224908 | 87 | 106 | 2.0 | 4.0 | 0.00 | 0.00 | 0.00 | 99 | 1014.7 |
| 20260509224403 | 87 | 125 | 2.0 | 4.0 | 0.00 | 0.00 | 0.00 | 99 | 1014.5 |
| 20260509223901 | 88 | 132 | 0.0 | 4.0 | 0.00 | 0.00 | 0.00 | 99 | 1014.6 |
| 20260509223357 | 88 | 81 | 2.0 | 3.0 | 0.00 | 0.00 | 0.00 | 99 | 1014.5 |
| 20260509222854 | 87 | 58 | 3.0 | 3.0 | 0.00 | 0.00 | 0.00 | 99 | 1014.5 |
| 20260509222355 | 88 | 95 | 0.0 | 2.0 | 0.00 | 0.00 | 0.00 | 99 | 1014.5 |
| 20260509221850 | 87 | 75 | 2.0 | 2.0 | 0.00 | 0.00 | 0.00 | 99 | 1014.5 |
| 20260509221348 | 87 | 111 | 3.0 | 5.0 | 0.00 | 0.00 | 0.00 | 99 | 1014.4 |
| 20260509220843 | 87 | 129 | 2.0 | 3.0 | 0.00 | 0.00 | 0.00 | 99 | 1014.7 |
| 20260509220339 | 86 | 121 | 2.0 | 3.0 | 0.00 | 0.00 | 0.00 | 99 | 1014.5 |
| 20260509215835 | 87 | 8 | 1.0 | 5.0 | 0.00 | 0.00 | 0.00 | 99 | 1014.5 |
| 20260509215332 | 86 | 101 | 2.0 | 4.0 | 0.00 | 0.00 | 0.00 | 99 | 1014.4 |
| 20260509214829 | 87 | 108 | 2.0 | 3.0 | 0.00 | 0.00 | 0.00 | 99 | 1014.5 |
| 20260509214326 | 86 | 109 | 3.0 | 4.0 | 0.00 | 0.00 | 0.00 | 99 | 1014.5 |
| 20260509213823 | 86 | 120 | 2.0 | 3.0 | 0.00 | 0.00 | 0.00 | 99 | 1014.7 |
| 20260509213318 | 87 | 45 | 0.0 | 3.0 | 0.00 | 0.00 | 0.00 | 99 | 1014.6 |
| 20260509212816 | 86 | 97 | 3.0 | 4.0 | 0.00 | 0.00 | 0.00 | 99 | 1014.9 |
| 20260509212314 | 87 | 81 | 2.0 | 4.0 | 0.00 | 0.00 | 0.00 | 99 | 1015.2 |
| 20260509211809 | 86 | 60 | 1.0 | 3.0 | 0.00 | 0.00 | 0.00 | 99 | 1014.8 |
| 20260509211305 | 87 | 47 | 3.0 | 3.0 | 0.00 | 0.00 | 0.00 | 99 | 1014.7 |
| 20260509210802 | 86 | 115 | 2.0 | 4.0 | 0.00 | 0.00 | 0.00 | 99 | 1014.9 |
| 20260509210300 | 87 | 119 | 3.0 | 3.0 | 0.00 | 0.00 | 0.00 | 99 | 1014.9 |
| 20260509205759 | 87 | 58 | 3.0 | 5.0 | 0.00 | 0.00 | 0.00 | 99 | 1014.9 |
| 20260509205254 | 87 | 15 | 1.0 | 6.0 | 0.00 | 0.00 | 0.00 | 99 | 1015.2 |
| 20260509204750 | 87 | 95 | 2.0 | 3.0 | 0.00 | 0.00 | 0.00 | 99 | 1015.3 |
| 20260509204247 | 87 | 115 | 0.0 | 3.0 | 0.00 | 0.00 | 0.00 | 99 | 1015.2 |
| 20260509203743 | 87 | 129 | 3.0 | 3.0 | 0.00 | 0.00 | 0.00 | 99 | 1015.3 |
| 20260509203241 | 87 | 132 | 2.0 | 3.0 | 0.00 | 0.00 | 0.00 | 99 | 1015.3 |
| 20260509202736 | 86 | 115 | 2.0 | 4.0 | 0.00 | 0.00 | 0.00 | 99 | 1015.7 |
| 20260509202233 | 85 | 108 | 2.0 | 3.0 | 0.00 | 0.00 | 0.00 | 99 | 1015.5 |
| 20260509201727 | 87 | 114 | 3.0 | 3.0 | 0.00 | 0.00 | 0.00 | 99 | 1015.3 |
| 20260509201224 | 87 | 116 | 4.0 | 5.0 | 0.00 | 0.00 | 0.00 | 99 | 1015.6 |
| 20260509200720 | 86 | 157 | 1.0 | 4.0 | 0.00 | 0.00 | 0.00 | 99 | 1015.6 |
| 20260509200215 | 85 | 101 | 2.0 | 4.0 | 0.00 | 0.00 | 0.00 | 99 | 1015.6 |
| 20260509195711 | 85 | 81 | 0.0 | 6.0 | 0.00 | 0.00 | 0.00 | 99 | 1015.6 |
| 20260509195207 | 86 | 115 | 2.0 | 4.0 | 0.00 | 0.00 | 0.00 | 99 | 1015.5 |
| 20260509194701 | 85 | 102 | 3.0 | 7.0 | 0.00 | 0.00 | 0.00 | 99 | 1015.8 |
| 20260509194158 | 86 | 30 | 2.0 | 6.0 | 0.00 | 0.00 | 0.00 | 99 | 1015.7 |
| 20260509193654 | 85 | 144 | 0.0 | 4.0 | 0.00 | 0.00 | 0.00 | 99 | 1015.8 |
| 20260509193149 | 86 | 90 | 2.0 | 5.0 | 0.00 | 0.00 | 0.00 | 99 | 1015.8 |
| 20260509192646 | 86 | 128 | 2.0 | 4.0 | 0.00 | 0.00 | 0.00 | 99 | 1016.0 |
| 20260509192142 | 86 | 98 | 0.0 | 4.0 | 0.00 | 0.00 | 0.00 | 99 | 1015.8 |